TimeAKDT,TemperatureF,Dew PointF,Humidity,Sea Level PressureIn,VisibilityMPH,Wind Direction,Wind SpeedMPH,Gust SpeedMPH,PrecipitationIn,Events,Conditions,WindDirDegrees,DateUTC
12:53 AM,39.9,36.0,86,29.96,10.0,NNW,12.7,17.3,0.01,,Overcast,330,2013-04-19 08:53:00
1:53 AM,39.9,35.1,83,29.98,10.0,NW,9.2,-,N/A,,Mostly Cloudy,310,2013-04-19 09:53:00
2:27 AM,39.2,35.6,87,29.97,10.0,NW,9.2,-,N/A,,Overcast,320,2013-04-19 10:27:00
2:35 AM,39.2,35.6,87,29.98,10.0,NW,5.8,-,N/A,,Overcast,320,2013-04-19 10:35:00
2:49 AM,39.2,33.8,81,29.98,10.0,NW,6.9,-,N/A,,Overcast,310,2013-04-19 10:49:00
2:53 AM,39.9,34.0,79,29.99,10.0,NW,5.8,-,N/A,,Overcast,310,2013-04-19 10:53:00
3:53 AM,39.9,34.0,79,30.01,10.0,NW,8.1,-,N/A,,Overcast,310,2013-04-19 11:53:00
4:53 AM,39.9,33.1,77,30.03,10.0,NW,8.1,-,N/A,,Overcast,320,2013-04-19 12:53:00
5:53 AM,39.0,30.9,73,30.04,10.0,NW,6.9,-,N/A,,Overcast,320,2013-04-19 13:53:00
6:53 AM,39.0,28.9,67,30.04,10.0,NW,8.1,-,N/A,,Overcast,320,2013-04-19 14:53:00
7:53 AM,39.9,28.9,65,30.06,10.0,NW,9.2,-,N/A,,Clear,310,2013-04-19 15:53:00
8:53 AM,39.9,28.0,63,30.07,10.0,NW,10.4,-,N/A,,Mostly Cloudy,310,2013-04-19 16:53:00
9:53 AM,42.1,27.0,55,30.09,10.0,NW,9.2,18.4,N/A,,Scattered Clouds,310,2013-04-19 17:53:00
10:53 AM,43.0,24.1,47,30.11,10.0,NW,13.8,21.9,N/A,,Scattered Clouds,320,2013-04-19 18:53:00
11:53 AM,45.0,26.1,48,30.13,10.0,NW,10.4,19.6,N/A,,Partly Cloudy,320,2013-04-19 19:53:00
12:53 PM,46.0,25.0,44,30.13,10.0,NNW,8.1,-,N/A,,Partly Cloudy,340,2013-04-19 20:53:00
1:53 PM,48.0,24.1,39,30.14,10.0,NW,9.2,-,N/A,,Partly Cloudy,310,2013-04-19 21:53:00
2:53 PM,48.9,26.1,41,30.15,10.0,West,8.1,-,N/A,,Partly Cloudy,280,2013-04-19 22:53:00
3:53 PM,48.9,25.0,39,30.16,10.0,West,6.9,-,N/A,,Partly Cloudy,270,2013-04-19 23:53:00
4:53 PM,48.0,27.0,44,30.17,10.0,WNW,4.6,-,N/A,,Partly Cloudy,290,2013-04-20 00:53:00
5:53 PM,45.0,28.0,52,30.18,10.0,WSW,4.6,-,N/A,,Clear,240,2013-04-20 01:53:00
6:53 PM,43.0,28.0,56,30.18,10.0,Calm,Calm,-,N/A,,Clear,0,2013-04-20 02:53:00
7:53 PM,39.9,30.9,70,30.18,10.0,Calm,Calm,-,N/A,,Clear,0,2013-04-20 03:53:00
8:53 PM,37.0,34.0,89,30.19,10.0,Calm,Calm,-,N/A,,Clear,0,2013-04-20 04:53:00
9:53 PM,36.0,34.0,93,30.21,10.0,Calm,Calm,-,N/A,,Scattered Clouds,0,2013-04-20 05:53:00
10:53 PM,35.1,32.0,89,30.22,10.0,NW,3.5,-,N/A,,Clear,320,2013-04-20 06:53:00
11:53 PM,34.0,32.0,92,30.24,10.0,NW,3.5,-,N/A,,Clear,320,2013-04-20 07:53:00